Location: Unspecified
(0.0000°N, 0.0000°E)
Time: 11:43:15
(UTC+00:00)

Explorer 11/Cluster Stage 4 - Pass Details

Date: 09 October 2020
Orbit: 467 x 1258 km, 28.8° (Epoch: 28 October)

Event Time Altitude Azimuth Distance (km) Brightness Sun altitude
Rises 17:24:24 0° 268° (W) 3,027 12.3 5.6°
Reaches altitude 10° 17:27:48 10° 289° (WNW) 1,951 10.0 4.8°
Maximum altitude 17:30:31 16° 328° (NNW) 1,498 8.4 4.1°
Drops below altitude 10° 17:33:00 10° 6° (N) 1,745 8.3 3.5°
Sets 17:35:48 0° 30° (NNE) 2,546 8.9 2.8°
